Regional Weather Roundup
Issued by NWS Albany, NY

Home | Current Version | Previous Version | Text Only | Print | Product List | Glossary On
Versions: 1 2 3 4 5 6 7 8 9 10 11 12 13 14 15 16 17 18 19 20 21 22 23 24 25 26 27 28 29 30 31 32 33 34 35 36 37 38 39 40 41 42 43 44 45 46 47 48 49 50
000
ASUS41 KALY 301310
RWRALY

NEW YORK STATE HOURLY WEATHER ROUNDUP
NATIONAL WEATHER SERVICE ALBANY NY
900 AM EDT TUE JUN 30 2015

NOTE: "FAIR" INDICATES FEW OR NO CLOUDS BELOW 12,000 FEET WITH NO
SIGNIFICANT WEATHER AND/OR NO OBSTRUCTIONS TO VISIBILITY.

NYZ032-033-038>043-046>054-057>066-NYZ062>081-301400-
EAST


CITY           SKY/WX    TMP DP  RH WIND       PRES   REMARKS
ALBANY         CLOUDY    67  59  75 CALM      30.00S
GLENS FALLS    PTSUNNY   64  58  80 SW5       30.00S
POUGHKEEPSIE   CLOUDY    67  61  81 CALM      29.99R
NEWBURGH       PTSUNNY   66  63  88 CALM      30.00S
MONTGOMERY     CLOUDY    66  61  84 N6        29.99S
WHITE PLAINS   MOSUNNY   73  61  65 E3        29.98F
ISLIP          MOSUNNY   75  63  66 SW6       29.98S
NEW YORK CITY  MOSUNNY   75  58  55 S7        29.97F
CENTRAL PARK   SUNNY     75  58  55 VRB3      30.00F
$$

NYZ005>009-017-018-044>046-055-056-301400-
CENTRAL


CITY           SKY/WX    TMP DP  RH WIND       PRES   REMARKS
FULTON         CLOUDY    63  57  81 VRB5      29.91S
SYRACUSE       CLOUDY    62  59  90 E7        29.92S
ROME           CLOUDY    62  56  80 SE8       29.97S
ELMIRA         CLOUDY    63  61  93 VRB5      29.90F
BINGHAMTON     LGT RAIN  58  58 100 E12       29.95F VSB 1
MONTICELLO     CLOUDY    61  57  88 E7        30.01F
$$

NYZ026>034-041>043-301400-
NORTH


CITY           SKY/WX    TMP DP  RH WIND       PRES   REMARKS
WATERTOWN      LGT RAIN  63  58  83 CALM      29.93R
FORT DRUM      NOT AVBL
MASSENA        SUNNY     67  58  72 SE3       29.95R
SARANAC LAKE   SUNNY     62  54  74 S3        29.98S
PLATTSBURGH    SUNNY     65  58  78 SE8       29.98R
$$

NYZ001>004-010>016-019>021-301400-
WEST


CITY           SKY/WX    TMP DP  RH WIND       PRES   REMARKS
NIAGARA FALLS  CLOUDY    64  59  83 E9        29.82F
BUFFALO        CLOUDY    64  59  83 E9        29.83S
DUNKIRK        CLOUDY    65  60  84 S5        29.82S
JAMESTOWN      CLOUDY    61  57  88 SE9       29.86S
WELLSVILLE     LGT RAIN  61  58  90 S10       29.91F
ROCHESTER      CLOUDY    65  61  87 SE7       29.87F
PENN YAN       LGT RAIN  63  60  90 CALM      29.90F
$$

             KEY
       WCI = WIND CHILL INDEX
       VSB = VISIBILITY
       HX  = HEAT INDEX
$$


USA.gov is the U.S. government's official web portal to all federal, state and local government web resources and services.